Cloud_Cover
100 100 30 100 100 100 51 30 3 10 5 24 0 0 0 2 5 5 5 93 0 5 5 90 97 77 10 5 4 14 35 94 73 91 17 5 9 4 0 5 5 0 4 4 4
100 100 100 100 100 100 68 21 0 1 10 25 0 0 0 10 5 5 68 63 0 5 14 100 92 39 5 5 3 96 39 42 12 30 6 5 64 5 64 5 9 100 4 5 5
100 54 100 100 100 100 100 4 4 12 8 0 0 2 5 13 5 4 69 12 0 4 5 5 59 6 5 10 13 99 100 3 6 36 27 48 32 5 62 98 72 94 94 0 12
99 80 34 100 100 100 82 5 9 4 6 0 5 5 5 5 47 5 99 42 0 5 5 5 5 31 70 99 11 98 3 40 5 80 85 33 41 76 56 34 25 46 100 12 0
100 88 100 100 100 98 40 13 23 15 0 0 3 5 5 5 4 86 100 8 5 5 29 5 12 8 56 96 11 86 33 11 7 94 27 21 20 96 32 3 1 2 16 89 27
100 100 100 100 100 34 37 31 23 0 5 4 5 36 5 4 7 100 89 16 13 60 74 5 6 4 5 91 62 5 50 50 5 78 54 72 89 8 13 0 0 2 3 72 64
100 100 100 100 97 42 38 30 9 5 5 5 5 5 5 2 21 100 100 96 89 55 5 9 5 7 21 100 10 3 98 89 16 88 97 88 100 42 0 0 5 2 5 11 0
100 100 100 100 80 41 28 7 2 5 5 5 5 5 5 5 59 100 98 96 69 7 5 19 9 73 69 35 5 27 90 100 40 3 98 89 96 6 0 9 10 5 4 4 0
100 100 100 90 27 3 0 0 5 5 5 5 5 5 4 90 100 100 100 14 5 5 5 5 47 64 14 90 43 100 44 96 58 0 22 43 93 46 0 0 5 5 1 0 3
100 100 100 28 2 0 0 4 5 18 16 5 8 5 18 87 100 100 100 5 5 5 20 28 15 71 49 39 98 100 100 89 67 39 1 92 100 1 0 0 0 0 0 3 5
100 96 69 2 0 0 31 5 5 5 5 12 5 5 10 100 100 100 100 72 100 85 97 96 100 100 90 34 1 57 90 65 5 4 40 32 5 23 0 0 0 0 0 0 0
100 100 45 0 0 0 13 5 74 32 5 5 5 5 91 100 100 100 79 100 53 100 57 97 98 28 4 4 1 6 91 58 41 6 98 7 2 4 0 0 0 0 0 0 0
98 37 0 0 1 34 21 88 37 5 5 5 4 4 99 100 100 100 29 3 17 6 100 100 89 0 1 3 57 77 37 8 65 37 5 5 3 0 0 0 0 0 0 0 0
45 1 0 0 49 5 95 74 6 5 5 5 5 17 100 100 100 81 37 5 5 50 53 100 11 1 14 5 77 100 3 5 70 56 85 7 100 7 11 0 0 0 0 0 0
86 0 0 82 4 36 92 4 99 57 72 64 13 100 100 100 100 66 100 94 31 95 70 100 94 95 63 60 15 84 5 4 5 53 99 7 97 100 100 5 3 3 0 0 0
100 56 2 6 5 68 65 100 100 100 100 98 100 100 100 100 100 100 100 96 29 15 36 97 88 25 86 5 4 24 6 40 32 90 100 100 68 75 100 100 86 55 5 1 3
97 8 18 1 6 98 100 96 100 99 68 95 100 100 100 100 100 100 100 100 100 97 100 100 100 38 5 18 16 14 100 68 54 90 93 23 2 94 83 99 47 99 74 50 10
100 63 0 5 13 100 100 62 100 99 36 93 100 100 100 100 100 100 100 74 40 70 100 100 94 5 28 41 77 86 76 100 43 70 100 0 70 72 7 33 0 0 0 5 25
8 0 0 5 9 100 100 100 98 100 100 100 100 100 100 100 100 100 100 100 97 19 36 96 90 5 0 5 1 10 24 88 0 58 16 100 78 2 0 0 2 1 5 5 5
4 1 0 4 9 89 100 32 99 100 100 100 100 72 12 78 100 92 90 56 83 17 90 95 97 10 2 0 3 0 6 0 87 86 45 100 100 75 74 5 0 0 5 6 20
5 0 0 5 5 32 75 77 99 100 100 98 35 64 99 75 9 99 100 44 8 9 5 90 22 68 0 4 6 1 11 58 2 2 62 85 100 67 1 0 0 0 0 1 2
5 5 0 0 4 18 10 86 73 92 100 100 89 61 72 98 81 100 100 48 5 3 2 4 60 100 99 1 0 0 0 0 0 5 59 3 0 8 0 0 0 0 0 0 0
5 58 3 5 5 5 50 100 100 100 75 43 8 6 40 96 82 74 97 8 0 1 69 69 4 58 94 60 5 4 0 0 0 0 5 5 70 30 5 4 0 0 0 0 0
36 21 5 4 5 31 74 62 61 45 94 98 100 18 5 6 22 78 34 4 0 0 0 0 4 58 65 55 20 2 0 2 1 1 5 4 5 5 5 4 2 0 0 0 0
65 90 9 5 4 5 66 94 50 45 15 66 70 8 5 65 45 5 27 1 5 3 0 0 4 5 5 5 0 0 0 0 0 0 0 1 3 5 0 0 0 0 0 0 0
97 96 77 13 8 14 5 24 82 57 5 5 5 6 70 100 64 100 42 5 4 0 0 0 0 0 0 0 0 4 0 2 0 0 0 0 24 0 0 0 0 0 0 1 0
98 85 100 52 66 37 51 58 100 71 87 12 5 42 82 67 3 4 5 5 5 0 1 0 1 4 1 2 1 0 1 0 0 0 0 0 0 0 0 0 0 0 0 1 0